Location: Casaglia
(44.0333°N, 11.5167°E)
Time: 21:24:07
(UTC+00:00)

Envisat - Pass Details

Date: 06 August 2021
Orbit: 764 x 766 km, 98.2° (Epoch: 17 September)

Event Time Altitude Azimuth Distance (km) Brightness Sun altitude
Rises 03:18:09 0° 29° (NNE) 3,242 7.5 -8.6°
Reaches altitude 10° 03:21:17 10° 50° (NE) 2,309 7.2 -8.1°
Maximum altitude 03:24:35 17° 90° (E) 1,856 5.9 -7.6°
Drops below altitude 10° 03:27:51 10° 131° (SE) 2,297 5.7 -7.1°
Sets 03:30:56 0° 151° (SSE) 3,217 6.2 -6.7°
